| time (UTC) | temp C | wind direction | speed KPH | gust KPH | rain 1hr cm | rain 24hr cm | rain mn cm | humidity % | barometer mb |
| 20260510045116 | 23 | 77 | 8.0 | 17.7 | 0.00 | 0.00 | 0.00 | 60 | 1025.0 |
| 20260510044615 | 23 | 143 | 11.3 | 14.5 | 0.00 | 0.00 | 0.00 | 59 | 1025.0 |
| 20260510044116 | 23 | 119 | 9.7 | 14.5 | 0.00 | 0.00 | 0.00 | 59 | 1025.0 |
| 20260510043616 | 23 | 88 | 6.4 | 11.3 | 0.00 | 0.00 | 0.00 | 58 | 1025.0 |
| 20260510043115 | 23 | 109 | 11.3 | 12.9 | 0.00 | 0.00 | 0.00 | 58 | 1025.0 |
| 20260510042617 | 23 | 122 | 6.4 | 19.3 | 0.00 | 0.00 | 0.00 | 58 | 1025.0 |
| 20260510042115 | 23 | 106 | 9.7 | 20.9 | 0.00 | 0.00 | 0.00 | 58 | 1025.0 |
| 20260510041616 | 23 | 99 | 14.5 | 17.7 | 0.00 | 0.00 | 0.00 | 58 | 1025.0 |
| 20260510041115 | 23 | 109 | 6.4 | 16.1 | 0.00 | 0.00 | 0.00 | 59 | 1025.0 |
| 20260510040616 | 23 | 85 | 19.3 | 19.3 | 0.00 | 0.00 | 0.00 | 58 | 1025.0 |
| 20260510040115 | 24 | 103 | 8.0 | 19.3 | 0.00 | 0.00 | 0.00 | 57 | 1025.0 |
| 20260510035616 | 24 | 102 | 14.5 | 16.1 | 0.00 | 0.00 | 0.00 | 56 | 1025.0 |
| 20260510035116 | 23 | 106 | 4.8 | 14.5 | 0.00 | 0.00 | 0.00 | 57 | 1025.0 |
| 20260510034615 | 23 | 94 | 6.4 | 6.4 | 0.00 | 0.00 | 0.00 | 58 | 1025.0 |
| 20260510034115 | 24 | 136 | 4.8 | 19.3 | 0.00 | 0.00 | 0.00 | 57 | 1025.0 |
| 20260510033615 | 24 | 140 | 3.2 | 6.4 | 0.00 | 0.00 | 0.00 | 58 | 1025.0 |
| 20260510033115 | 24 | 112 | 4.8 | 14.5 | 0.00 | 0.00 | 0.00 | 57 | 1025.0 |
| 20260510032615 | 25 | 172 | 6.4 | 8.0 | 0.00 | 0.00 | 0.00 | 56 | 1025.0 |
| 20260510032115 | 25 | 130 | 6.4 | 6.4 | 0.00 | 0.00 | 0.00 | 57 | 1025.0 |
| 20260510031617 | 24 | 167 | 6.4 | 14.5 | 0.00 | 0.00 | 0.00 | 57 | 1025.0 |
| 20260510031116 | 24 | 107 | 8.0 | 19.3 | 0.00 | 0.00 | 0.00 | 56 | 1025.0 |
| 20260510030615 | 24 | 142 | 3.2 | 11.3 | 0.00 | 0.00 | 0.00 | 56 | 1025.0 |
| 20260510030115 | 24 | 129 | 4.8 | 11.3 | 0.00 | 0.00 | 0.00 | 57 | 1025.0 |
| 20260510025615 | 24 | 124 | 14.5 | 17.7 | 0.00 | 0.00 | 0.00 | 56 | 1025.0 |
| 20260510025115 | 23 | 163 | 4.8 | 8.0 | 0.00 | 0.00 | 0.00 | 58 | 1025.0 |
| 20260510024139 | 23 | 104 | 4.8 | 12.9 | 0.00 | 0.00 | 0.00 | 59 | 1025.0 |
| 20260510023615 | 24 | 185 | 9.7 | 12.9 | 0.00 | 0.00 | 0.00 | 57 | 1025.0 |
| 20260510023117 | 23 | 111 | 6.4 | 12.9 | 0.00 | 0.00 | 0.00 | 59 | 1025.0 |
| 20260510022615 | 24 | 161 | 6.4 | 9.7 | 0.00 | 0.00 | 0.00 | 59 | 1025.0 |
| 20260510022118 | 23 | 110 | 6.4 | 14.5 | 0.00 | 0.00 | 0.00 | 59 | 1025.0 |
| 20260510021616 | 24 | 99 | 11.3 | 19.3 | 0.00 | 0.00 | 0.00 | 57 | 1025.0 |
| 20260510021115 | 24 | 115 | 6.4 | 17.7 | 0.00 | 0.00 | 0.00 | 58 | 1025.0 |
| 20260510020615 | 23 | 119 | 6.4 | 12.9 | 0.00 | 0.00 | 0.00 | 60 | 1025.0 |
| 20260510020115 | 23 | 111 | 11.3 | 22.5 | 0.00 | 0.00 | 0.00 | 59 | 1025.0 |
| 20260510015615 | 23 | 155 | 9.7 | 11.3 | 0.00 | 0.00 | 0.00 | 61 | 1026.0 |
| 20260510015118 | 23 | 101 | 9.7 | 11.3 | 0.00 | 0.00 | 0.00 | 60 | 1025.0 |
| 20260510014616 | 23 | 145 | 9.7 | 14.5 | 0.00 | 0.00 | 0.00 | 59 | 1026.0 |
| 20260510014116 | 23 | 86 | 6.4 | 12.9 | 0.00 | 0.00 | 0.00 | 59 | 1026.0 |
| 20260510013616 | 23 | 206 | 3.2 | 11.3 | 0.00 | 0.00 | 0.00 | 59 | 1026.0 |
| 20260510013115 | 23 | 62 | 4.8 | 4.8 | 0.00 | 0.00 | 0.00 | 60 | 1026.0 |
| 20260510012616 | 23 | 147 | 4.8 | 9.7 | 0.00 | 0.00 | 0.00 | 61 | 1026.0 |
| 20260510012115 | 23 | 191 | 4.8 | 9.7 | 0.00 | 0.00 | 0.00 | 60 | 1026.0 |
| 20260510011615 | 22 | 232 | 0.0 | 4.8 | 0.00 | 0.00 | 0.00 | 60 | 1026.0 |
| 20260510011116 | 23 | 244 | 6.4 | 9.7 | 0.00 | 0.00 | 0.00 | 59 | 1026.0 |
| 20260510010616 | 23 | 223 | 4.8 | 6.4 | 0.00 | 0.00 | 0.00 | 59 | 1026.0 |
| 20260510010116 | 22 | 224 | 0.0 | 4.8 | 0.00 | 0.00 | 0.00 | 60 | 1026.0 |
| 20260510005615 | 22 | 205 | 3.2 | 9.7 | 0.00 | 0.00 | 0.00 | 60 | 1027.0 |
| 20260510005115 | 22 | 231 | 3.2 | 9.7 | 0.00 | 0.00 | 0.00 | 60 | 1027.0 |
| 20260510004615 | 22 | 231 | 4.8 | 8.0 | 0.00 | 0.00 | 0.00 | 59 | 1026.0 |
| 20260510004115 | 22 | 156 | 3.2 | 6.4 | 0.00 | 0.00 | 0.00 | 61 | 1027.0 |
| 20260510003615 | 21 | 133 | 6.4 | 8.0 | 0.00 | 0.00 | 0.00 | 61 | 1027.0 |
| 20260510003116 | 21 | 264 | 1.6 | 8.0 | 0.00 | 0.00 | 0.00 | 60 | 1027.0 |
| 20260510002615 | 22 | 150 | 3.2 | 9.7 | 0.00 | 0.00 | 0.00 | 61 | 1027.0 |
| 20260510002115 | 21 | 163 | 3.2 | 8.0 | 0.00 | 0.00 | 0.00 | 62 | 1027.0 |
| 20260510001615 | 21 | 202 | 4.8 | 6.4 | 0.00 | 0.00 | 0.00 | 61 | 1027.0 |
| 20260510001115 | 21 | 205 | 4.8 | 11.3 | 0.00 | 0.00 | 0.00 | 62 | 1027.0 |
| 20260510000616 | 21 | 278 | 4.8 | 8.0 | 0.00 | 0.00 | 0.00 | 62 | 1027.0 |
| 20260510000115 | 21 | 321 | 3.2 | 9.7 | 0.00 | 0.00 | 0.00 | 63 | 1027.0 |
| 20260509235616 | 21 | 341 | 4.8 | 11.3 | 0.00 | 0.00 | 0.00 | 63 | 1027.0 |
| 20260509235115 | 20 | 257 | 4.8 | 9.7 | 0.00 | 0.00 | 0.00 | 63 | 1027.0 |
| 20260509234617 | 20 | 180 | 1.6 | 11.3 | 0.00 | 0.00 | 0.00 | 64 | 1027.0 |
| 20260509234116 | 20 | 245 | 8.0 | 8.0 | 0.00 | 0.00 | 0.00 | 65 | 1027.0 |
| 20260509233616 | 19 | 0 | 3.2 | 11.3 | 0.00 | 0.00 | 0.00 | 66 | 1027.0 |
| 20260509233116 | 19 | 153 | 3.2 | 11.3 | 0.00 | 0.00 | 0.00 | 66 | 1027.0 |
| 20260509232615 | 19 | 261 | 6.4 | 9.7 | 0.00 | 0.00 | 0.00 | 66 | 1027.0 |
| 20260509232115 | 18 | 167 | 6.4 | 9.7 | 0.00 | 0.00 | 0.00 | 67 | 1027.0 |
| 20260509231616 | 18 | 247 | 3.2 | 11.3 | 0.00 | 0.00 | 0.00 | 68 | 1027.0 |
| 20260509231115 | 18 | 169 | 4.8 | 9.7 | 0.00 | 0.00 | 0.00 | 68 | 1027.0 |
| 20260509230615 | 18 | 169 | 3.2 | 9.7 | 0.00 | 0.00 | 0.00 | 69 | 1027.0 |
| 20260509230116 | 18 | 168 | 3.2 | 12.9 | 0.00 | 0.00 | 0.00 | 68 | 1027.0 |
| 20260509225615 | 18 | 131 | 3.2 | 9.7 | 0.00 | 0.00 | 0.00 | 68 | 1027.0 |
| 20260509225117 | 17 | 178 | 4.8 | 11.3 | 0.00 | 0.00 | 0.00 | 68 | 1027.0 |
| 20260509224616 | 17 | 164 | 1.6 | 8.0 | 0.00 | 0.00 | 0.00 | 69 | 1027.0 |
| 20260509224115 | 17 | 158 | 8.0 | 9.7 | 0.00 | 0.00 | 0.00 | 69 | 1027.0 |
| 20260509223615 | 17 | 164 | 1.6 | 6.4 | 0.00 | 0.00 | 0.00 | 70 | 1027.0 |
| 20260509223115 | 17 | 236 | 3.2 | 8.0 | 0.00 | 0.00 | 0.00 | 71 | 1026.0 |
| 20260509222616 | 16 | 174 | 8.0 | 8.0 | 0.00 | 0.00 | 0.00 | 72 | 1027.0 |
| 20260509222115 | 16 | 177 | 3.2 | 9.7 | 0.00 | 0.00 | 0.00 | 72 | 1026.0 |
| 20260509221616 | 16 | 150 | 8.0 | 8.0 | 0.00 | 0.00 | 0.00 | 72 | 1026.0 |
| 20260509221115 | 16 | 202 | 3.2 | 12.9 | 0.00 | 0.00 | 0.00 | 72 | 1026.0 |
| 20260509220616 | 16 | 167 | 8.0 | 14.5 | 0.00 | 0.00 | 0.00 | 72 | 1026.0 |
| 20260509220117 | 16 | 187 | 4.8 | 12.9 | 0.00 | 0.00 | 0.00 | 71 | 1026.0 |
| 20260509215615 | 16 | 162 | 0.0 | 6.4 | 0.00 | 0.00 | 0.00 | 72 | 1026.0 |
| 20260509215115 | 16 | 129 | 4.8 | 6.4 | 0.00 | 0.00 | 0.00 | 73 | 1026.0 |
| 20260509214615 | 15 | 180 | 6.4 | 6.4 | 0.00 | 0.00 | 0.00 | 73 | 1026.0 |
| 20260509214116 | 15 | 131 | 0.0 | 4.8 | 0.00 | 0.00 | 0.00 | 74 | 1026.0 |
| 20260509213615 | 15 | 165 | 1.6 | 3.2 | 0.00 | 0.00 | 0.00 | 75 | 1026.0 |
| 20260509213118 | 15 | 126 | 3.2 | 8.0 | 0.00 | 0.00 | 0.00 | 75 | 1026.0 |
| 20260509212617 | 15 | 180 | 6.4 | 8.0 | 0.00 | 0.00 | 0.00 | 76 | 1026.0 |
| 20260509212116 | 14 | 161 | 3.2 | 6.4 | 0.00 | 0.00 | 0.00 | 77 | 1026.0 |
| 20260509211616 | 14 | 127 | 3.2 | 11.3 | 0.00 | 0.00 | 0.00 | 77 | 1026.0 |
| 20260509211115 | 13 | 234 | 0.0 | 4.8 | 0.00 | 0.00 | 0.00 | 78 | 1025.0 |
| 20260509210615 | 13 | 218 | 1.6 | 4.8 | 0.00 | 0.00 | 0.00 | 79 | 1026.0 |
| 20260509210115 | 13 | 139 | 3.2 | 4.8 | 0.00 | 0.00 | 0.00 | 80 | 1026.0 |
| 20260509205616 | 13 | 195 | 0.0 | 4.8 | 0.00 | 0.00 | 0.00 | 81 | 1025.0 |
| 20260509205115 | 13 | 118 | 3.2 | 4.8 | 0.00 | 0.00 | 0.00 | 82 | 1025.0 |
| 20260509204617 | 12 | 159 | 4.8 | 4.8 | 0.00 | 0.00 | 0.00 | 83 | 1025.0 |
| 20260509204116 | 12 | 147 | 0.0 | 4.8 | 0.00 | 0.00 | 0.00 | 83 | 1025.0 |
| 20260509203616 | 12 | 216 | 1.6 | 4.8 | 0.00 | 0.00 | 0.00 | 83 | 1025.0 |
| 20260509203116 | 12 | 211 | 3.2 | 3.2 | 0.00 | 0.00 | 0.00 | 84 | 1025.0 |
| 20260509202615 | 12 | 181 | 1.6 | 4.8 | 0.00 | 0.00 | 0.00 | 83 | 1025.0 |
| 20260509202115 | 12 | 122 | 1.6 | 4.8 | 0.00 | 0.00 | 0.00 | 83 | 1025.0 |
| 20260509201615 | 12 | 122 | 3.2 | 6.4 | 0.00 | 0.00 | 0.00 | 83 | 1025.0 |
| 20260509201115 | 12 | 151 | 3.2 | 8.0 | 0.00 | 0.00 | 0.00 | 84 | 1025.0 |
| 20260509200615 | 12 | 133 | 3.2 | 6.4 | 0.00 | 0.00 | 0.00 | 83 | 1025.0 |
| 20260509200117 | 12 | 106 | 4.8 | 4.8 | 0.00 | 0.00 | 0.00 | 83 | 1025.0 |
| 20260509195616 | 12 | 149 | 0.0 | 4.8 | 0.00 | 0.00 | 0.00 | 83 | 1025.0 |
| 20260509195115 | 12 | 99 | 3.2 | 4.8 | 0.00 | 0.00 | 0.00 | 82 | 1025.0 |
| 20260509194616 | 12 | 241 | 3.2 | 3.2 | 0.00 | 0.00 | 0.00 | 82 | 1025.0 |
| 20260509194115 | 12 | 325 | 0.0 | 3.2 | 0.00 | 0.00 | 0.00 | 82 | 1025.0 |
| 20260509193615 | 12 | 135 | 1.6 | 8.0 | 0.00 | 0.00 | 0.00 | 82 | 1025.0 |
| 20260509193116 | 12 | 156 | 4.8 | 8.0 | 0.00 | 0.00 | 0.00 | 81 | 1025.0 |
| 20260509192615 | 12 | 147 | 4.8 | 9.7 | 0.00 | 0.00 | 0.00 | 81 | 1025.0 |
| 20260509192115 | 12 | 127 | 3.2 | 6.4 | 0.00 | 0.00 | 0.00 | 80 | 1024.0 |
| 20260509191616 | 13 | 118 | 3.2 | 8.0 | 0.00 | 0.00 | 0.00 | 80 | 1025.0 |
| 20260509191115 | 13 | 88 | 1.6 | 8.0 | 0.00 | 0.00 | 0.00 | 80 | 1024.0 |
| 20260509190617 | 13 | 170 | 4.8 | 6.4 | 0.00 | 0.00 | 0.00 | 80 | 1024.0 |
| 20260509190117 | 13 | 176 | 4.8 | 6.4 | 0.00 | 0.00 | 0.00 | 80 | 1024.0 |
| 20260509185615 | 13 | 87 | 3.2 | 6.4 | 0.00 | 0.00 | 0.00 | 80 | 1024.0 |
| 20260509185116 | 13 | 93 | 3.2 | 6.4 | 0.00 | 0.00 | 0.00 | 80 | 1024.0 |
| 20260509184616 | 13 | 151 | 4.8 | 4.8 | 0.00 | 0.00 | 0.00 | 79 | 1024.0 |
| 20260509184117 | 13 | 113 | 4.8 | 4.8 | 0.00 | 0.00 | 0.00 | 80 | 1024.0 |
| 20260509183616 | 13 | 129 | 1.6 | 4.8 | 0.00 | 0.00 | 0.00 | 79 | 1024.0 |
| 20260509183116 | 13 | 113 | 1.6 | 4.8 | 0.00 | 0.00 | 0.00 | 78 | 1024.0 |
| 20260509182615 | 13 | 161 | 3.2 | 4.8 | 0.00 | 0.00 | 0.00 | 78 | 1024.0 |
| 20260509182116 | 13 | 182 | 1.6 | 6.4 | 0.00 | 0.00 | 0.00 | 77 | 1024.0 |
| 20260509181615 | 13 | 130 | 0.0 | 4.8 | 0.00 | 0.00 | 0.00 | 76 | 1024.0 |
| 20260509181116 | 13 | 209 | 4.8 | 8.0 | 0.00 | 0.00 | 0.00 | 76 | 1024.0 |
| 20260509180616 | 13 | 233 | 3.2 | 8.0 | 0.00 | 0.00 | 0.00 | 76 | 1024.0 |
| 20260509180117 | 13 | 203 | 6.4 | 6.4 | 0.00 | 0.00 | 0.00 | 76 | 1024.0 |
| 20260509175616 | 13 | 174 | 1.6 | 6.4 | 0.00 | 0.00 | 0.00 | 77 | 1024.0 |
| 20260509175116 | 13 | 305 | 3.2 | 4.8 | 0.00 | 0.00 | 0.00 | 78 | 1024.0 |
| 20260509174615 | 13 | 160 | 3.2 | 4.8 | 0.00 | 0.00 | 0.00 | 79 | 1024.0 |
| 20260509174115 | 13 | 173 | 3.2 | 4.8 | 0.00 | 0.00 | 0.00 | 79 | 1024.0 |
| 20260509173615 | 13 | 145 | 1.6 | 4.8 | 0.00 | 0.00 | 0.00 | 79 | 1024.0 |
| 20260509173115 | 13 | 117 | 0.0 | 4.8 | 0.00 | 0.00 | 0.00 | 79 | 1024.0 |
| 20260509172615 | 13 | 151 | 3.2 | 4.8 | 0.00 | 0.00 | 0.00 | 79 | 1024.0 |
| 20260509172115 | 13 | 111 | 4.8 | 6.4 | 0.00 | 0.00 | 0.00 | 80 | 1024.0 |
| 20260509171617 | 13 | 124 | 0.0 | 4.8 | 0.00 | 0.00 | 0.00 | 81 | 1024.0 |
| 20260509171118 | 12 | 88 | 1.6 | 4.8 | 0.00 | 0.00 | 0.00 | 82 | 1024.0 |
| 20260509170616 | 12 | 203 | 1.6 | 4.8 | 0.00 | 0.00 | 0.00 | 82 | 1024.0 |
| 20260509170116 | 13 | 79 | 1.6 | 3.2 | 0.00 | 0.00 | 0.00 | 81 | 1024.0 |
| 20260509165625 | 13 | 163 | 0.0 | 4.8 | 0.00 | 0.00 | 0.00 | 81 | 1024.0 |
| 20260509165119 | 13 | 110 | 1.6 | 6.4 | 0.00 | 0.00 | 0.00 | 79 | 1024.0 |
| 20260509164615 | 13 | 141 | 3.2 | 6.4 | 0.00 | 0.00 | 0.00 | 79 | 1024.0 |
| 20260509164115 | 13 | 289 | 4.8 | 6.4 | 0.00 | 0.00 | 0.00 | 80 | 1024.0 |
| 20260509163615 | 13 | 226 | 3.2 | 4.8 | 0.00 | 0.00 | 0.00 | 80 | 1024.0 |
| 20260509163118 | 13 | 33 | 0.0 | 4.8 | 0.00 | 0.00 | 0.00 | 80 | 1024.0 |
| 20260509162617 | 13 | 163 | 4.8 | 4.8 | 0.00 | 0.00 | 0.00 | 80 | 1024.0 |
| 20260509162116 | 13 | 253 | 3.2 | 8.0 | 0.00 | 0.00 | 0.00 | 80 | 1024.0 |
| 20260509161615 | 13 | 218 | 4.8 | 6.4 | 0.00 | 0.00 | 0.00 | 81 | 1024.0 |
| 20260509161118 | 13 | 167 | 3.2 | 8.0 | 0.00 | 0.00 | 0.00 | 82 | 1024.0 |
| 20260509160616 | 13 | 291 | 6.4 | 8.0 | 0.00 | 0.00 | 0.00 | 82 | 1024.0 |
| 20260509160116 | 13 | 325 | 3.2 | 4.8 | 0.00 | 0.00 | 0.00 | 81 | 1024.0 |
| 20260509155616 | 13 | 232 | 4.8 | 4.8 | 0.00 | 0.00 | 0.00 | 81 | 1024.0 |
| 20260509155116 | 13 | 287 | 6.4 | 9.7 | 0.00 | 0.00 | 0.00 | 80 | 1024.0 |
| 20260509154615 | 13 | 265 | 4.8 | 6.4 | 0.00 | 0.00 | 0.00 | 80 | 1024.0 |
| 20260509154115 | 13 | 187 | 3.2 | 6.4 | 0.00 | 0.00 | 0.00 | 80 | 1024.0 |
| 20260509153616 | 13 | 178 | 4.8 | 9.7 | 0.00 | 0.00 | 0.00 | 81 | 1024.0 |
| 20260509153117 | 13 | 265 | 0.0 | 4.8 | 0.00 | 0.00 | 0.00 | 81 | 1024.0 |
| 20260509152615 | 13 | 113 | 0.0 | 4.8 | 0.00 | 0.00 | 0.00 | 81 | 1024.0 |
| 20260509152117 | 13 | 106 | 1.6 | 4.8 | 0.00 | 0.00 | 0.00 | 81 | 1024.0 |
| 20260509151615 | 13 | 75 | 1.6 | 4.8 | 0.00 | 0.00 | 0.00 | 80 | 1024.0 |
| 20260509151115 | 13 | 112 | 3.2 | 3.2 | 0.00 | 0.00 | 0.00 | 80 | 1024.0 |
| 20260509150615 | 13 | 178 | 3.2 | 4.8 | 0.00 | 0.00 | 0.00 | 81 | 1024.0 |
| 20260509150116 | 13 | 160 | 1.6 | 3.2 | 0.00 | 0.00 | 0.00 | 81 | 1024.0 |
| 20260509145616 | 13 | 134 | 1.6 | 4.8 | 0.00 | 0.00 | 0.00 | 81 | 1024.0 |
| 20260509145118 | 13 | 111 | 1.6 | 4.8 | 0.00 | 0.00 | 0.00 | 81 | 1024.0 |
| 20260509144617 | 13 | 266 | 1.6 | 3.2 | 0.00 | 0.00 | 0.00 | 81 | 1025.0 |
| 20260509144115 | 13 | 127 | 3.2 | 4.8 | 0.00 | 0.00 | 0.00 | 80 | 1024.0 |
| 20260509143619 | 13 | 183 | 4.8 | 4.8 | 0.00 | 0.00 | 0.00 | 81 | 1024.0 |
| 20260509143117 | 13 | 162 | 1.6 | 3.2 | 0.00 | 0.00 | 0.00 | 82 | 1024.0 |
| 20260509142145 | 13 | 158 | 3.2 | 4.8 | 0.00 | 0.00 | 0.00 | 82 | 1024.0 |
| 20260509141615 | 13 | 150 | 3.2 | 4.8 | 0.00 | 0.00 | 0.00 | 82 | 1024.0 |
| 20260509141115 | 13 | 323 | 3.2 | 4.8 | 0.00 | 0.00 | 0.00 | 81 | 1024.0 |
| 20260509140617 | 14 | 137 | 0.0 | 3.2 | 0.00 | 0.00 | 0.00 | 80 | 1024.0 |
| 20260509140116 | 14 | 254 | 0.0 | 4.8 | 0.00 | 0.00 | 0.00 | 81 | 1024.0 |
| 20260509135617 | 14 | 348 | 3.2 | 4.8 | 0.00 | 0.00 | 0.00 | 80 | 1024.0 |
| 20260509135117 | 14 | 153 | 3.2 | 4.8 | 0.00 | 0.00 | 0.00 | 79 | 1024.0 |
| 20260509134616 | 15 | 93 | 3.2 | 4.8 | 0.00 | 0.00 | 0.00 | 78 | 1024.0 |
| 20260509134115 | 14 | 311 | 3.2 | 4.8 | 0.00 | 0.00 | 0.00 | 79 | 1024.0 |
| 20260509133615 | 14 | 184 | 1.6 | 4.8 | 0.00 | 0.00 | 0.00 | 80 | 1024.0 |
| 20260509133118 | 14 | 110 | 0.0 | 4.8 | 0.00 | 0.00 | 0.00 | 79 | 1024.0 |
| 20260509132615 | 14 | 184 | 4.8 | 4.8 | 0.00 | 0.00 | 0.00 | 79 | 1024.0 |
| 20260509132116 | 15 | 89 | 0.0 | 6.4 | 0.00 | 0.00 | 0.00 | 78 | 1024.0 |
| 20260509131616 | 15 | 176 | 1.6 | 6.4 | 0.00 | 0.00 | 0.00 | 78 | 1024.0 |
| 20260509131115 | 15 | 43 | 1.6 | 6.4 | 0.00 | 0.00 | 0.00 | 78 | 1024.0 |
| 20260509130616 | 15 | 26 | 3.2 | 4.8 | 0.00 | 0.00 | 0.00 | 77 | 1024.0 |
| 20260509130117 | 15 | 132 | 3.2 | 4.8 | 0.00 | 0.00 | 0.00 | 77 | 1024.0 |
| 20260509125615 | 15 | 251 | 0.0 | 6.4 | 0.00 | 0.00 | 0.00 | 78 | 1024.0 |
| 20260509125115 | 15 | 105 | 3.2 | 6.4 | 0.00 | 0.00 | 0.00 | 77 | 1024.0 |
| 20260509124615 | 15 | 172 | 4.8 | 6.4 | 0.00 | 0.00 | 0.00 | 77 | 1024.0 |
| 20260509124117 | 15 | 329 | 6.4 | 9.7 | 0.00 | 0.00 | 0.00 | 78 | 1025.0 |
| 20260509123615 | 15 | 194 | 3.2 | 4.8 | 0.00 | 0.00 | 0.00 | 80 | 1025.0 |
| 20260509123117 | 15 | 25 | 3.2 | 4.8 | 0.00 | 0.00 | 0.00 | 79 | 1025.0 |
| 20260509122615 | 15 | 125 | 0.0 | 4.8 | 0.00 | 0.00 | 0.00 | 79 | 1025.0 |
| 20260509122116 | 15 | 89 | 3.2 | 8.0 | 0.00 | 0.00 | 0.00 | 77 | 1024.0 |
| 20260509121615 | 16 | 109 | 0.0 | 6.4 | 0.00 | 0.00 | 0.00 | 75 | 1024.0 |
| 20260509121116 | 16 | 197 | 3.2 | 9.7 | 0.00 | 0.00 | 0.00 | 75 | 1024.0 |
| 20260509120615 | 16 | 248 | 1.6 | 3.2 | 0.00 | 0.00 | 0.00 | 75 | 1024.0 |
| 20260509120116 | 16 | 164 | 0.0 | 0.0 | 0.00 | 0.00 | 0.00 | 75 | 1024.0 |
| 20260509115615 | 16 | 220 | 0.0 | 3.2 | 0.00 | 0.00 | 0.00 | 75 | 1025.0 |
| 20260509115116 | 16 | 226 | 1.6 | 4.8 | 0.00 | 0.00 | 0.00 | 76 | 1025.0 |
| 20260509114616 | 15 | 224 | 0.0 | 1.6 | 0.00 | 0.00 | 0.00 | 77 | 1025.0 |
| 20260509114117 | 15 | 180 | 0.0 | 1.6 | 0.00 | 0.00 | 0.00 | 78 | 1024.0 |
| 20260509113616 | 15 | 106 | 0.0 | 3.2 | 0.00 | 0.00 | 0.00 | 77 | 1024.0 |
| 20260509113115 | 16 | 89 | 0.0 | 3.2 | 0.00 | 0.00 | 0.00 | 76 | 1024.0 |
| 20260509112617 | 16 | 157 | 0.0 | 1.6 | 0.00 | 0.00 | 0.00 | 75 | 1024.0 |
| 20260509112116 | 16 | 154 | 1.6 | 3.2 | 0.00 | 0.00 | 0.00 | 74 | 1025.0 |
| 20260509111617 | 16 | 145 | 3.2 | 3.2 | 0.00 | 0.00 | 0.00 | 73 | 1024.0 |
| 20260509111115 | 16 | 268 | 1.6 | 4.8 | 0.00 | 0.00 | 0.00 | 74 | 1025.0 |
| 20260509110615 | 16 | 157 | 0.0 | 3.2 | 0.00 | 0.00 | 0.00 | 73 | 1024.0 |
| 20260509110115 | 16 | 158 | 3.2 | 3.2 | 0.00 | 0.00 | 0.00 | 73 | 1024.0 |
| 20260509105616 | 17 | 128 | 3.2 | 4.8 | 0.00 | 0.00 | 0.00 | 72 | 1024.0 |
| 20260509105117 | 16 | 120 | 3.2 | 3.2 | 0.00 | 0.00 | 0.00 | 72 | 1024.0 |
| 20260509104616 | 17 | 154 | 0.0 | 1.6 | 0.00 | 0.00 | 0.00 | 71 | 1025.0 |
| 20260509104115 | 17 | 217 | 0.0 | 0.0 | 0.00 | 0.00 | 0.00 | 71 | 1024.0 |
| 20260509103616 | 17 | 266 | 0.0 | 0.0 | 0.00 | 0.00 | 0.00 | 71 | 1024.0 |
| 20260509103117 | 17 | 225 | 3.2 | 3.2 | 0.00 | 0.00 | 0.00 | 71 | 1024.0 |
| 20260509102615 | 17 | 204 | 0.0 | 3.2 | 0.00 | 0.00 | 0.00 | 72 | 1025.0 |
| 20260509102115 | 17 | 185 | 0.0 | 3.2 | 0.00 | 0.00 | 0.00 | 71 | 1024.0 |
| 20260509101615 | 17 | 135 | 0.0 | 0.0 | 0.00 | 0.00 | 0.00 | 71 | 1024.0 |
| 20260509101117 | 17 | 242 | 0.0 | 1.6 | 0.00 | 0.00 | 0.00 | 71 | 1024.0 |
| 20260509100617 | 17 | 269 | 0.0 | 1.6 | 0.00 | 0.00 | 0.00 | 70 | 1024.0 |
| 20260509100117 | 17 | 17 | 0.0 | 1.6 | 0.00 | 0.00 | 0.00 | 69 | 1024.0 |
| 20260509095615 | 17 | 81 | 0.0 | 1.6 | 0.00 | 0.00 | 0.00 | 67 | 1024.0 |
| 20260509095116 | 18 | 126 | 1.6 | 3.2 | 0.00 | 0.00 | 0.00 | 67 | 1024.0 |
| 20260509094616 | 18 | 86 | 3.2 | 3.2 | 0.00 | 0.00 | 0.00 | 67 | 1024.0 |
| 20260509094116 | 17 | 89 | 3.2 | 4.8 | 0.00 | 0.00 | 0.00 | 68 | 1024.0 |
| 20260509093616 | 17 | 94 | 3.2 | 4.8 | 0.00 | 0.00 | 0.00 | 68 | 1024.0 |
| 20260509093116 | 18 | 89 | 3.2 | 4.8 | 0.00 | 0.00 | 0.00 | 67 | 1024.0 |
| 20260509092617 | 18 | 88 | 3.2 | 4.8 | 0.00 | 0.00 | 0.00 | 66 | 1024.0 |
| 20260509092115 | 18 | 96 | 3.2 | 3.2 | 0.00 | 0.00 | 0.00 | 66 | 1024.0 |
| 20260509091616 | 18 | 93 | 1.6 | 3.2 | 0.00 | 0.00 | 0.00 | 64 | 1024.0 |
| 20260509091117 | 18 | 79 | 1.6 | 4.8 | 0.00 | 0.00 | 0.00 | 63 | 1024.0 |
| 20260509090616 | 18 | 77 | 3.2 | 4.8 | 0.00 | 0.00 | 0.00 | 63 | 1024.0 |
| 20260509090117 | 18 | 88 | 3.2 | 6.4 | 0.00 | 0.00 | 0.00 | 63 | 1024.0 |
| 20260509085615 | 18 | 103 | 4.8 | 6.4 | 0.00 | 0.00 | 0.00 | 63 | 1024.0 |
| 20260509085116 | 18 | 78 | 3.2 | 4.8 | 0.00 | 0.00 | 0.00 | 62 | 1024.0 |
| 20260509084615 | 18 | 98 | 4.8 | 6.4 | 0.00 | 0.00 | 0.00 | 62 | 1023.0 |
| 20260509084116 | 19 | 103 | 6.4 | 8.0 | 0.00 | 0.00 | 0.00 | 61 | 1023.0 |
| 20260509083615 | 19 | 92 | 4.8 | 6.4 | 0.00 | 0.00 | 0.00 | 60 | 1023.0 |
| 20260509083116 | 20 | 69 | 4.8 | 6.4 | 0.00 | 0.00 | 0.00 | 59 | 1023.0 |
| 20260509082616 | 20 | 67 | 4.8 | 6.4 | 0.00 | 0.00 | 0.00 | 59 | 1023.0 |
| 20260509082116 | 20 | 78 | 8.0 | 8.0 | 0.00 | 0.00 | 0.00 | 59 | 1023.0 |
| 20260509081618 | 20 | 66 | 6.4 | 8.0 | 0.00 | 0.00 | 0.00 | 58 | 1023.0 |
| 20260509081116 | 20 | 68 | 6.4 | 8.0 | 0.00 | 0.00 | 0.00 | 58 | 1023.0 |
| 20260509080618 | 20 | 87 | 4.8 | 8.0 | 0.00 | 0.00 | 0.00 | 57 | 1023.0 |
| 20260509080117 | 20 | 83 | 4.8 | 6.4 | 0.00 | 0.00 | 0.00 | 57 | 1023.0 |
| 20260509075615 | 20 | 71 | 6.4 | 6.4 | 0.00 | 0.00 | 0.00 | 57 | 1023.0 |
| 20260509075116 | 20 | 69 | 4.8 | 6.4 | 0.00 | 0.00 | 0.00 | 56 | 1023.0 |
| 20260509074616 | 20 | 73 | 4.8 | 8.0 | 0.00 | 0.00 | 0.00 | 56 | 1023.0 |
| 20260509074115 | 20 | 63 | 8.0 | 8.0 | 0.00 | 0.00 | 0.00 | 55 | 1023.0 |
| 20260509073616 | 20 | 92 | 8.0 | 8.0 | 0.00 | 0.00 | 0.00 | 55 | 1023.0 |
| 20260509073115 | 20 | 72 | 3.2 | 6.4 | 0.00 | 0.00 | 0.00 | 55 | 1023.0 |
| 20260509072615 | 20 | 85 | 4.8 | 8.0 | 0.00 | 0.00 | 0.00 | 54 | 1023.0 |
| 20260509072115 | 20 | 67 | 4.8 | 6.4 | 0.00 | 0.00 | 0.00 | 54 | 1023.0 |
| 20260509071616 | 20 | 72 | 6.4 | 9.7 | 0.00 | 0.00 | 0.00 | 53 | 1023.0 |
| 20260509071117 | 20 | 66 | 6.4 | 9.7 | 0.00 | 0.00 | 0.00 | 53 | 1023.0 |
| 20260509070616 | 20 | 98 | 6.4 | 8.0 | 0.00 | 0.00 | 0.00 | 52 | 1023.0 |
| 20260509070115 | 21 | 89 | 4.8 | 9.7 | 0.00 | 0.00 | 0.00 | 51 | 1022.0 |
| 20260509065615 | 21 | 86 | 6.4 | 9.7 | 0.00 | 0.00 | 0.00 | 51 | 1022.0 |
| 20260509065115 | 21 | 52 | 8.0 | 12.9 | 0.00 | 0.00 | 0.00 | 50 | 1022.0 |
| 20260509064616 | 21 | 96 | 9.7 | 12.9 | 0.00 | 0.00 | 0.00 | 49 | 1022.0 |
| 20260509064116 | 21 | 105 | 8.0 | 14.5 | 0.00 | 0.00 | 0.00 | 49 | 1022.0 |
| 20260509063616 | 21 | 66 | 14.5 | 16.1 | 0.00 | 0.00 | 0.00 | 48 | 1022.0 |
| 20260509063117 | 22 | 81 | 8.0 | 14.5 | 0.00 | 0.00 | 0.00 | 47 | 1022.0 |
| 20260509062617 | 22 | 82 | 8.0 | 12.9 | 0.00 | 0.00 | 0.00 | 46 | 1022.0 |
| 20260509062116 | 22 | 105 | 4.8 | 14.5 | 0.00 | 0.00 | 0.00 | 44 | 1022.0 |
| 20260509061616 | 22 | 116 | 12.9 | 17.7 | 0.00 | 0.00 | 0.00 | 45 | 1022.0 |
| 20260509061117 | 22 | 119 | 9.7 | 16.1 | 0.00 | 0.00 | 0.00 | 46 | 1022.0 |
| 20260509060616 | 22 | 99 | 8.0 | 16.1 | 0.00 | 0.00 | 0.00 | 47 | 1022.0 |
| 20260509060118 | 22 | 53 | 14.5 | 17.7 | 0.00 | 0.00 | 0.00 | 47 | 1022.0 |
| 20260509055615 | 22 | 44 | 9.7 | 11.3 | 0.00 | 0.00 | 0.00 | 47 | 1022.0 |
| 20260509055115 | 22 | 92 | 11.3 | 14.5 | 0.00 | 0.00 | 0.00 | 46 | 1022.0 |
| 20260509054616 | 22 | 92 | 12.9 | 17.7 | 0.00 | 0.00 | 0.00 | 45 | 1022.0 |
| 20260509054115 | 22 | 119 | 9.7 | 17.7 | 0.00 | 0.00 | 0.00 | 44 | 1022.0 |
| 20260509053615 | 22 | 103 | 8.0 | 11.3 | 0.00 | 0.00 | 0.00 | 45 | 1021.0 |
| 20260509053116 | 22 | 105 | 3.2 | 11.3 | 0.00 | 0.00 | 0.00 | 45 | 1022.0 |
| 20260509052616 | 22 | 126 | 9.7 | 11.3 | 0.00 | 0.00 | 0.00 | 45 | 1021.0 |
| 20260509052116 | 22 | 121 | 8.0 | 12.9 | 0.00 | 0.00 | 0.00 | 46 | 1022.0 |
| 20260509051615 | 22 | 121 | 6.4 | 14.5 | 0.00 | 0.00 | 0.00 | 46 | 1021.0 |
| 20260509051117 | 22 | 100 | 11.3 | 17.7 | 0.00 | 0.00 | 0.00 | 45 | 1022.0 |
| 20260509050615 | 22 | 32 | 6.4 | 9.7 | 0.00 | 0.00 | 0.00 | 44 | 1022.0 |
| 20260509050116 | 22 | 32 | 8.0 | 8.0 | 0.00 | 0.00 | 0.00 | 44 | 1022.0 |
| 20260509045616 | 23 | 96 | 4.8 | 9.7 | 0.00 | 0.00 | 0.00 | 44 | 1022.0 |